• In Uzbekistan
  • List of Countries
  • For 7 days
  • Water Temperature
  • Satellite Maps
  • Weather Map
  • Weather Widgets
  • user-avatar
    Login

    Hourly Weather Budapest

    Today, 18 September, Tuesday

    Time Temperature Precipitation Wind Pressure Humidity
    00:00 +20°C° 0 mm 1 mps 758 mmHg 58%
    01:00 +19°C° 0 mm 2 mps 758 mmHg 57%
    02:00 +19°C° 0 mm 1 mps 758 mmHg 59%
    03:00 +19°C° 0 mm 1 mps 758 mmHg 60%
    04:00 +19°C° 0 mm 1 mps 757 mmHg 61%
    05:00 +19°C° 0 mm 1 mps 758 mmHg 59%
    06:00 +20°C° 0 mm 1 mps 758 mmHg 58%
    07:00 +19°C° 0 mm 2 mps 758 mmHg 52%
    08:00 +21°C° 0 mm 2 mps 758 mmHg 47%
    09:00 +24°C° 0 mm 2 mps 758 mmHg 41%
    10:00 +26°C° 0 mm 3 mps 758 mmHg 36%
    11:00 +27°C° 0 mm 3 mps 758 mmHg 34%
    12:00 +28°C° 0 mm 3 mps 757 mmHg 31%
    13:00 +29°C° 0 mm 3 mps 757 mmHg 29%
    14:00 +29°C° 0 mm 3 mps 756 mmHg 29%
    15:00 +29°C° 0 mm 2 mps 756 mmHg 28%
    16:00 +29°C° 0 mm 2 mps 756 mmHg 28%
    17:00 +27°C° 0 mm 2 mps 756 mmHg 32%
    18:00 +25°C° 0 mm 2 mps 756 mmHg 35%
    19:00 +24°C° 0 mm 2 mps 756 mmHg 39%
    20:00 +23°C° 0 mm 2 mps 756 mmHg 41%
    21:00 +21°C° 0 mm 2 mps 756 mmHg 43%
    22:00 +21°C° 0 mm 2 mps 757 mmHg 44%
    23:00 +20°C° 0 mm 2 mps 757 mmHg 46%

    Tomorrow, 19 September, Wednesday

    Time Temperature Precipitation Wind Pressure Humidity
    00:00 +20°C° 0 mm 2 mps 757 mmHg 48%
    01:00 +19°C° 0 mm 2 mps 757 mmHg 50%
    02:00 +19°C° 0 mm 2 mps 757 mmHg 53%
    03:00 +18°C° 0 mm 2 mps 757 mmHg 55%
    04:00 +18°C° 0 mm 2 mps 757 mmHg 58%
    05:00 +18°C° 0 mm 2 mps 757 mmHg 57%
    06:00 +19°C° 0 mm 2 mps 757 mmHg 57%
    07:00 +19°C° 0 mm 2 mps 757 mmHg 57%
    08:00 +23°C° 0 mm 2 mps 757 mmHg 51%
    09:00 +25°C° 0 mm 2 mps 757 mmHg 45%
    10:00 +27°C° 0 mm 2 mps 757 mmHg 40%
    11:00 +28°C° 0 mm 2 mps 757 mmHg 36%
    12:00 +29°C° 0 mm 2 mps 757 mmHg 33%
    13:00 +30°C° 0 mm 2 mps 757 mmHg 29%
    14:00 +30°C° 0 mm 2 mps 756 mmHg 29%
    15:00 +30°C° 0 mm 2 mps 756 mmHg 28%
    16:00 +31°C° 0 mm 1 mps 756 mmHg 27%
    17:00 +29°C° 0 mm 1 mps 756 mmHg 31%
    18:00 +27°C° 0 mm 1 mps 756 mmHg 34%
    19:00 +25°C° 0 mm 1 mps 756 mmHg 38%
    20:00 +24°C° 0 mm 1 mps 756 mmHg 40%
    21:00 +23°C° 0 mm 1 mps 757 mmHg 41%
    22:00 +23°C° 0 mm 1 mps 757 mmHg 43%
    23:00 +22°C° 0 mm 1 mps 757 mmHg 45%

    Day after tomorrow, 20 September, Thursday

    Time Temperature Precipitation Wind Pressure Humidity
    00:00 +22°C° 0 mm 1 mps 757 mmHg 47%
    01:00 +21°C° 0 mm 1 mps 757 mmHg 49%
    02:00 +21°C° 0 mm 1 mps 757 mmHg 50%
    03:00 +20°C° 0 mm 1 mps 756 mmHg 52%
    04:00 +20°C° 0 mm 1 mps 756 mmHg 53%
    05:00 +20°C° 0 mm 1 mps 757 mmHg 53%
    06:00 +21°C° 0 mm 1 mps 757 mmHg 52%
    07:00 +21°C° 0 mm 1 mps 757 mmHg 51%
    08:00 +24°C° 0 mm 2 mps 757 mmHg 45%
    09:00 +26°C° 0 mm 2 mps 757 mmHg 39%
    10:00 +28°C° 0 mm 2 mps 757 mmHg 33%
    11:00 +29°C° 0 mm 2 mps 757 mmHg 30%
    12:00 +30°C° 0 mm 2 mps 756 mmHg 28%
    13:00 +31°C° 0 mm 1 mps 756 mmHg 25%
    14:00 +31°C° 0 mm 1 mps 756 mmHg 25%
    15:00 +31°C° 0 mm 1 mps 755 mmHg 25%
    16:00 +31°C° 0 mm 1 mps 755 mmHg 25%
    17:00 +29°C° 0 mm 1 mps 755 mmHg 28%
    18:00 +27°C° 0 mm 1 mps 755 mmHg 31%
    19:00 +25°C° 0 mm 1 mps 755 mmHg 34%
    20:00 +24°C° 0 mm 1 mps 755 mmHg 36%
    21:00 +24°C° 0 mm 1 mps 755 mmHg 38%
    22:00 +23°C° 0 mm 1 mps 755 mmHg 40%
    23:00 +22°C° 0 mm 1 mps 755 mmHg 41%

    21 September, Friday

    Time Temperature Precipitation Wind Pressure Humidity
    00:00 +22°C° 0 mm 1 mps 755 mmHg 43%
    01:00 +21°C° 0 mm 1 mps 755 mmHg 45%
    02:00 +21°C° 0 mm 1 mps 755 mmHg 47%
    03:00 +20°C° 0 mm 1 mps 754 mmHg 49%
    04:00 +20°C° 0 mm 1 mps 754 mmHg 50%
    05:00 +21°C° 0 mm 1 mps 754 mmHg 50%
    06:00 +21°C° 0 mm 1 mps 754 mmHg 49%
    07:00 +22°C° 0 mm 1 mps 754 mmHg 49%
    08:00 +24°C° 0 mm 2 mps 754 mmHg 43%
    09:00 +26°C° 0 mm 2 mps 754 mmHg 37%
    10:00 +28°C° 0 mm 3 mps 754 mmHg 32%
    11:00 +29°C° 0 mm 3 mps 753 mmHg 29%
    12:00 +30°C° 0 mm 4 mps 753 mmHg 25%
    13:00 +32°C° 0 mm 4 mps 752 mmHg 22%
    14:00 +32°C° 0 mm 4 mps 752 mmHg 22%
    15:00 +32°C° 0 mm 4 mps 751 mmHg 22%
    16:00 +31°C° 0 mm 3 mps 751 mmHg 21%
    17:00 +29°C° 0 mm 3 mps 751 mmHg 24%
    18:00 +27°C° 0 mm 3 mps 750 mmHg 27%
    19:00 +25°C° 0 mm 3 mps 750 mmHg 30%
    20:00 +24°C° 0 mm 3 mps 750 mmHg 32%
    21:00 +22°C° 0 mm 3 mps 750 mmHg 34%
    22:00 +22°C° 0 mm 3 mps 750 mmHg 36%
    23:00 +21°C° 0 mm 3 mps 750 mmHg 38%

    22 September, Saturday

    Time Temperature Precipitation Wind Pressure Humidity
    00:00 +21°C° 0 mm 3 mps 750 mmHg 40%
    01:00 +20°C° 0 mm 3 mps 750 mmHg 42%
    02:00 +20°C° 0.1 mm 4 mps 750 mmHg 48%
    03:00 +20°C° 0.1 mm 6 mps 751 mmHg 54%
    04:00 +20°C° 0.1 mm 7 mps 751 mmHg 60%
    05:00 +18°C° 0 mm 9 mps 752 mmHg 57%
    06:00 +17°C° 0 mm 10 mps 753 mmHg 55%
    07:00 +16°C° 0 mm 11 mps 754 mmHg 53%
    08:00 +14°C° 0.3 mm 10 mps 755 mmHg 55%
    09:00 +13°C° 0.3 mm 9 mps 756 mmHg 57%
    10:00 +13°C° 0.3 mm 8 mps 756 mmHg 59%
    11:00 +12°C° 0.9 mm 7 mps 757 mmHg 61%
    12:00 +13°C° 0.9 mm 6 mps 758 mmHg 63%
    13:00 +13°C° 0.9 mm 5 mps 758 mmHg 65%
    14:00 +13°C° 0.1 mm 5 mps 758 mmHg 60%
    15:00 +14°C° 0.1 mm 4 mps 758 mmHg 54%
    16:00 +15°C° 0.1 mm 4 mps 758 mmHg 49%
    17:00 +14°C° 0 mm 3 mps 759 mmHg 52%
    18:00 +13°C° 0 mm 3 mps 759 mmHg 56%
    19:00 +12°C° 0 mm 3 mps 759 mmHg 60%
    20:00 +12°C° 0 mm 3 mps 760 mmHg 63%
    21:00 +11°C° 0 mm 3 mps 760 mmHg 66%
    22:00 +11°C° 0 mm 3 mps 760 mmHg 69%
    23:00 +10°C° 0 mm 3 mps 760 mmHg 70%

    23 September, Sunday

    Time Temperature Precipitation Wind Pressure Humidity
    00:00 +10°C° 0 mm 3 mps 760 mmHg 71%
    01:00 +10°C° 0 mm 2 mps 760 mmHg 72%
    02:00 +9°C° 0 mm 2 mps 760 mmHg 73%
    03:00 +9°C° 0 mm 2 mps 760 mmHg 74%
    04:00 +9°C° 0 mm 2 mps 760 mmHg 75%
    05:00 +9°C° 0 mm 2 mps 760 mmHg 72%
    06:00 +10°C° 0 mm 2 mps 760 mmHg 70%
    07:00 +12°C° 0 mm 2 mps 760 mmHg 68%
    08:00 +13°C° 0 mm 2 mps 760 mmHg 60%
    09:00 +15°C° 0 mm 2 mps 760 mmHg 51%
    10:00 +18°C° 0 mm 1 mps 760 mmHg 43%
    11:00 +18°C° 0 mm 2 mps 759 mmHg 39%
    12:00 +19°C° 0 mm 2 mps 758 mmHg 34%
    13:00 +20°C° 0 mm 2 mps 758 mmHg 30%
    14:00 +20°C° 0 mm 2 mps 757 mmHg 29%
    15:00 +21°C° 0 mm 2 mps 757 mmHg 29%
    16:00 +21°C° 0 mm 2 mps 756 mmHg 29%
    17:00 +19°C° 0 mm 2 mps 756 mmHg 32%
    18:00 +18°C° 0 mm 2 mps 755 mmHg 35%
    19:00 +16°C° 0 mm 2 mps 755 mmHg 38%
    20:00 +16°C° 0 mm 3 mps 754 mmHg 38%
    21:00 +14°C° 0 mm 3 mps 754 mmHg 39%
    22:00 +14°C° 0 mm 3 mps 753 mmHg 39%
    23:00 +14°C° 0 mm 4 mps 752 mmHg 40%
    Show more